This is the latest recevied weather packets stored in our database for station/object KT2UU-13. If no packets are shown the sender has not sent any weather packets the latest 10 day(s).
| Time | Temp. | Humidity | Pressure | Rain* | Wind** | Luminosity | Snow |
|---|---|---|---|---|---|---|---|
| 1777143596 | 20° C | 91% | 1011.2 hPa | 0 mm | - | - | - |
| 1777143291 | 20° C | 93% | 1011.2 hPa | 0 mm | - | - | - |
| 1777142988 | 20° C | 94% | 1010.9 hPa | 0 mm | - | - | - |
| 1777142683 | 19.44° C | 94% | 1011 hPa | 1.78 mm | - | - | - |
| 1777142381 | 18.89° C | 94% | 1011.3 hPa | 1.78 mm | - | - | - |
| 1777142076 | 18.89° C | 95% | 1011.3 hPa | 0 mm | - | - | - |
| 1777141772 | 18.33° C | 95% | 1011.6 hPa | 0 mm | - | - | - |
| 1777141469 | 18.33° C | 96% | 1011.7 hPa | 0 mm | - | - | - |
| 1777141167 | 18.33° C | 96% | 1011.7 hPa | 0 mm | - | - | - |
| 1777140864 | 18.33° C | 95% | 1011.8 hPa | 0 mm | - | - | - |
| 1777140561 | 18.33° C | 95% | 1011.7 hPa | 0 mm | - | - | - |
| 1777140258 | 18.33° C | 95% | 1012 hPa | 0 mm | - | - | - |
| 1777139955 | 18.33° C | 95% | 1012.2 hPa | 0 mm | - | - | - |
| 1777139652 | 18.33° C | 94% | 1011.9 hPa | 0 mm | - | - | - |
| 1777139347 | 18.33° C | 94% | 1011.8 hPa | 0 mm | - | - | - |
| 1777139043 | 18.89° C | 93% | 1011.9 hPa | 0 mm | - | - | - |
| 1777138741 | 19.44° C | 93% | 1011.9 hPa | 0 mm | - | - | - |
| 1777138440 | 19.44° C | 93% | 1011.8 hPa | 0 mm | - | - | - |
| 1777138137 | 19.44° C | 92% | 1011.8 hPa | 0 mm | - | - | - |
| 1777137833 | 19.44° C | 93% | 1011.8 hPa | 0 mm | - | - | - |
| 1777137529 | 19.44° C | 93% | 1011.8 hPa | 0 mm | - | - | - |
| 1777137227 | 19.44° C | 93% | 1011.7 hPa | 0 mm | - | - | - |
| 1777136924 | 19.44° C | 93% | 1011.9 hPa | 0 mm | - | - | - |
| 1777136620 | 19.44° C | 93% | 1012 hPa | 0 mm | - | - | - |
| 1777136317 | 19.44° C | 93% | 1012 hPa | 0 mm | - | - | - |
* Rain latest hour (hover to see other rain measurements)
** Current wind speed in m/s (hover to see current wind gust speed)